www.pogodaiklimat.ru

Погода и климат >> Архив погоды >> Беларусь >> Марьина Горка


ПОГОДА в Марьиной Горке

  • Прогноз погоды в Марьиной Горке
  • Монитор погоды в Марьиной Горке
  • Климат города

АРХИВ ПОГОДЫ в Марьиной Горке

Время (UTC), дата Ветер
(напр.,м/с)
 
Видим.   Явления Облачность Т
(С)
Тd
(С)
f
(%)
Тe
(С)
Тes
(С)
Комфортность P
(гПа)
Po
(гПа)
Тmin
(С)
Tmax
(С)
R
(мм)
R24
(мм)
S
(см)
03 14.06 В 1 13 км 8/0 2000 м
[Ac und]
+16.3 +12.3 77 +17 +17 1009.3 988.6
06 14.06 В 2 18 км 8/0 2000 м
[Ac und]
+20.0 +13.7 67 +23 +26 комфорт 1009.5 989.1 +16.2
09 14.06 В 2 21 км 9/4 600 м
[Sc Ac und]
+22.8 +13.8 57 +26 +30 жарко 1009.6 989.4
12 14.06 В 1 14 км слабый ливневой дождь 9/8 300 м
[Cb cap Ac und]
+20.8 +14.2 66 +25 +27 комфорт 1010.3 989.9
15 14.06 СВ 3 8000 м слабый ливневой дождь 9/5 600 м
[Cb cap Ac und]
+16.8 +15.8 94 +17 +17 1011.5 990.8
18 14.06 В 3 8000 м слабый дождь {ливн. осадки} 10/3 300 м
[Frnb As trans]
+16.1 +15.5 96 +16 +16 1011.5 990.8 +24.1 6
21 14.06 СВ 2 7000 м слабый ливневой дождь 8/6 300 м
[Cb cap Ac und]
+15.3 +14.8 97 +15 +15 1012.2 991.4
00 15.06 В 3 7000 м дымка {ливн. осадки, дождь} 9/8 600 м
[Sc Ac und]
+14.9 +14.3 96 +14 +14 1011.9 991.1
03 15.06 СВ 3 7000 м дымка 10/8 300 м
[St As op]
+14.8 +14.0 95 +14 +14 1012.0 991.2
06 15.06 СВ 4 5000 м слабый ливневой дождь 9/6 300 м
[Cb cap Ac und]
+14.7 +13.7 94 +13 +14 1012.1 991.3 +14.7 0.5
09 15.06 С 2 5000 м слабый ливневой дождь 9/8 300 м
[Cb cap Ac und]
+14.0 +13.5 97 +13 +15 1013.1 992.2
12 15.06 СВ 3 4200 м слабый ливневой дождь 9/8 300 м
[Cb cap Ac und]
+14.5 +14.0 97 +13 +15 1013.6 992.7
15 15.06 СВ 3 7000 м дымка {ливн. осадки} 9/8 600 м
[Sc Ac und]
+14.8 +14.0 95 +14 +14 1014.0 993.1
18 15.06 СВ 2 8000 м слабый ливневой дождь 9/6 300 м
[Cb cap Ac und]
+14.0 +13.4 96 +13 +13 1014.3 993.4 +15.0 11
21 15.06 В 3 8000 м дымка {ливн. осадки} 10/8 300 м
[St As trans]
+13.1 +12.5 96 +12 +12 1015.0 994.0
00 16.06 СВ 2 7000 м дымка {ливн. осадки} 10/8 300 м
[St As trans]
+12.2 +11.7 97 +11 +11 1014.9 993.8
03 16.06 СВ 2 4100 м слабая морось 10/10 210 м
[St]
+12.1 +11.8 98 +11 +11 1015.0 993.9
06 16.06 С 2 5000 м дымка {морось} 10/10 210 м
[St]
+12.8 +12.2 96 +12 +12 1015.6 994.5 +12.1 0.1
09 16.06 С 2 10 км 9/9 500 м
[Sc]
+14.6 +12.8 89 +14 +16 1015.6 994.7
12 16.06 СВ 1 12 км 9/9 500 м
[Sc]
+15.4 +13.1 86 +16 +18 1016.6 995.7
15 16.06 СЗ 1 10 км 9/9 500 м
[Sc]
+15.3 +13.5 89 +16 +16 1016.6 995.7
18 16.06 СВ 2 8000 м дымка 9/9 500 м
[Sc]
+14.9 +13.4 91 +15 +15 1016.7 995.8 +15.7
21 16.06 штиль 0 6000 м дымка 9/9 660 м
[Sc]
+14.5 +13.5 94 +14 +14 1017.0 996.1
00 17.06 штиль 0 4500 м дымка 9/9 600 м
[Sc]
+13.9 +13.4 97 +13 +13 1017.4 996.4
03 17.06 штиль 0 5000 м дымка 9/9 700 м
[Sc]
+14.1 +13.5 96 +14 +14 1017.4 996.4
06 17.06 В 1 10 км 9/9 720 м
[Sc Ac und]
+15.4 +13.2 87 +16 +17 1017.3 996.4 +13.8
09 17.06 С 1 13 км 9/9 630 м
[Sc]
+16.4 +13.1 81 +17 +19 1017.6 996.8
12 17.06 СВ 1 16 км 9/9 660 м
[Sc]
+18.3 +13.0 71 +20 +21 1017.1 996.4
15 17.06 СВ 2 18 км 8/4 600 м
[Sc Ci fib]
+20.0 +13.9 68 +23 +25 комфорт 1016.0 995.5
18 17.06 штиль 0 18 км 9/0
[Ci fib]
+18.3 +13.6 74 +19 +19 1016.5 995.8 +20.8
21 17.06 СВ 1 8000 м дымка 8/0
[Ci fib]
+14.5 +13.2 92 +15 +15 1016.7 995.8
00 18.06 штиль 0 6000 м дымка 4/0
[Ci fib]
+14.2 +13.2 94 +14 +14 1016.8 995.8
03 18.06 штиль 0 5000 м дымка 9/0 2000 м
[Ac und Ci fib]
+13.8 +13.3 97 +13 +14 1017.1 996.1
06 18.06 СВ 1 15 км 8/0 2000 м
[Ac und]
+19.8 +14.8 73 +23 +27 комфорт 1016.7 996.1 +13.3
09 18.06 ЮЗ 1 20 км 9/0 2000 м
[Ac und Cs]
+24.5 +15.7 58 +28 +38 душно 1016.5 996.3
12 18.06 З 2 23 км 8/4 600 м
[Cu med, cong Ac und Cs]
+26.8 +12.8 42 +28 +34 жарко 1015.9 995.8
15 18.06 СЗ 2 23 км 8/3 600 м
[Cu med, cong Ac und Cs]
+27.4 +12.6 40 +29 +31 жарко 1014.9 994.9
18 18.06 З 1 18 км 9/0 2000 м
[Ac und Ci fib]
+23.8 +15.8 61 +27 +27 жарко 1015.6 995.3 +28.2
21 18.06 штиль 0 14 км 9/0 2000 м
[Ac und Cs]
+19.7 +16.0 79 +22 +22 комфорт 1016.3 995.8
00 19.06 штиль 0 11 км 9/0 2000 м
[Ac und Cs]
+18.3 +16.3 88 +19 +19 1016.6 996.0
03 19.06 штиль 0 10 км в посл. час ливневой дождь 9/8 600 м
[Sc Ac und]
+18.4 +16.6 89 +19 +19 1016.8 996.2
06 19.06 штиль 0 10 км в посл. час ливневой дождь 9/3 600 м
[Sc Ac und]
+20.2 +16.2 78 +23 +26 комфорт 1017.4 996.9 +17.8 0.4
09 19.06 З 1 20 км 8/1 600 м
[Cu hum Ac und]
+24.6 +15.5 57 +28 +35 душно 1016.1 995.9
12 19.06 З 2 25 км 9/8 600 м
[Cu Sc Ac und]
+26.2 +15.9 53 +29 +31 жарко 1014.9 994.8
15 19.06 СЗ 3 25 км 8/6 600 м
[Cu Sc Ci fib]
+26.2 +15.6 52 +29 +31 жарко 1013.6 993.5
18 19.06 З 2 22 км 9/0 2000 м
[Ac und Ci fib]
+22.7 +13.5 56 +26 +26 жарко 1014.2 993.9 +27.6
21 19.06 СЗ 1 17 км 4/0
[Ac und Ci fib]
+17.6 +12.7 73 +19 +19 1016.0 995.3
00 20.06 СЗ 3 17 км 8/0 2000 м
[Ac und]
+17.0 +11.7 71 +17 +17 1017.5 996.7
03 20.06 З 2 15 км ясно +14.6 +11.7 83 +14 +15 1018.7 997.7
06 20.06 СЗ 5 18 км 5/5 600 м
[Cu med, cong]
+18.8 +12.1 65 +19 +21 1018.6 997.9 +13.9
09 20.06 З 6
{10}
23 км ясно +22.6 +8.0 39 +24 +30 комфорт 1017.7 997.3
12 20.06 З 6-10
{11}
29 км ясно +25.1 +5.3 28 +25 +30 комфорт 1016.5 996.2
15 20.06 СЗ 5-10
{11}
28 км ясно +25.5 +6.7 30 +25 +28 комфорт 1015.8 995.6
18 20.06 СЗ 1 23 км ясно +21.8 +10.6 49 +24 +24 комфорт 1015.7 995.3 +26.1
21 20.06 СЗ 1 18 км ясно +17.3 +10.7 65 +18 +18 1017.3 996.5
00 21.06 штиль 0 16 км ясно +14.0 +10.6 80 +14 +14 1017.7 996.7

 

Местоположение метеостанции Марьина Горка (Минская область, Беларусь): широта 53.45 долгота 28.13 высота над уровнем моря 177 м.

В архиве по умолчанию представлена погода в Марьиной Горке за последнюю неделю. Архивные данные за месяц целиком и за предыдущие месяцы, начиная с января 2011 года, Вы можете получить, выбрав интересующий диапазон дат из раскрывающегося списка и нажав кнопку "Ввод!".


*Определитесь, кто Вы:
робот инопланетянин человек

Внимание! Время в таблицах - всемирное. Для получения местного времени необходимо прибавить поправку, которая в Марьиной Горке равна 3 ч.

Смотрите также архив погоды в соседних городах и на ближайших метеорологических станциях:

Погода в Слуцке (Минская область, Беларусь) (61 км)
Погода в Минске (город Минск, Беларусь) (63 км)
Погода в Березино (Минская область, Беларусь) (71 км)
Погода в Бобруйске (Могилевская область, Беларусь) (72 км)
Погода в Кличеве (Могилевская область, Беларусь) (79 км)
Погода в Столбцах (Минская область, Беларусь) (93 км)
Погода в Борисове (Минская область, Беларусь) (94 км)
Погода в Октябре (Гомельская область, Беларусь) (104 км)
Погода в Воложине (Минская область, Беларусь) (128 км)
Погода в Ганцевичах (Брестская область, Беларусь) (137 км)

Пояснения к столбцам:

Ветер - указаны скорость ветра в м/с - средняя за 10 мин, порывы в срок и между сроками (в фигурных скобках) и направление, откуда дует ветер: С - северный, СВ - северо-восточный, В - восточный, ЮВ - юго-восточный, Ю - южный, ЮЗ - юго-западный, З - западный, СЗ - северо-западный.
Видимость - горизонтальная дальность видимости в метрах или километрах. При видимости от 1 до 10 км при отсутствии осадков обычно наблюдается дымка, при ухудшении видимости до 1 км и менее - туман. В сухую погоду видимость может ухудшаться дымом, пылью или мглою.
Явления - указаны атмосферные явления, наблюдавшиеся в срок или в последний час перед сроком; фигурными скобками обозначены явления, наблюдавшиеся между сроками (за 1-3 часа до срока); квадратными скобками обозначены град или гололедные отложения с указанием их диаметра в мм.
Облачность - указаны через наклонную черту общая и нижняя облачность в баллах и высота нижней границы облаков в метрах; квадратными скобками обозначены формы облаков: Ci - перистые, Cs - перисто-слоистые, Cc - перисто-кучевые, Ac - высококучевые, As - высокослоистые, Sc - слоисто-кучевые, Ns - слоисто-дождевые, Cu - кучевые, Cb - кучево-дождевые. Подробнее классификацию облаков см. в Атласе облаков (PDF).
T - Температура воздуха - температура, измеренная на высоте 2 м над землей.
Td - Температура точки росы - температура, при понижении до которой содержащийся в воздухе водяной пар достигнет насыщения.
f - Относительная влажность воздуха - влажноcть воздуха, измеренная на высоте 2 м над землей.
Te - Эффективная температура - температура, которую ощущает одетый по сезону человек в тени. Характеристика душности погоды. При расчете учитывается влияние влажности воздуха и скорости ветра на теплоощущения человека.
Tes - Эффективная температура на солнце - температура, которую ощущает человек, с поправкой на солнечный нагрев. Характеристика знойности погоды. Зависит от высоты солнца над горизонтом, облачности и скорости ветра. Ночью, в пасмурную погоду, а также при ветре 12 м/с и более поправка равна нулю.
P - Атмосферное давление - приведенное к уровню моря атмосферное давление.
Po - Атмосферное давление - измеренное на уровне метеостанции атмосферное давление.
Tmin - Минимальная температура - минимум температуры воздуха на высоте 2 м над землей.
Tmax - Максимальная температура - максимум температуры воздуха на высоте 2 м над землей.
R - Количество осадков - Количество выпавших осадков за период времени, мм. При наведении курсора мыши на число - период времени, за который выпало указанное количество осадков.
R24 - Количество осадков - Количество выпавших осадков за 24 часа, мм.
S - Снежный покров - Высота снежного покрова, см. При наведении курсора мыши на число - состояние снежного покрова и степень покрытия местности в баллах.